#datint,netname,site,siteID,timestamp,airt_abovecanopy_avg,airt_f,airt_belowcanopy_avg,dpt_f,rh,soil_vwc,soil_f,Solar_rad,winds_mph,windd_deg,winds_mph_max,leafwetns,tot_10rain_mm,tot_60rain_mm,tot_dayrain_mm,leaft_1,budt_1
10min,FGNet,alpine,42.04,17FEB2021:00:00:00,29.2,29.3,29.1,21.0,71,31.23,32.1314,0,6.3,275.5,12.3,0,0.00,0.00,0.10,28.634,28.9292
10min,FGNet,alpine,42.04,17FEB2021:00:10:00,29.1,29.2,29.1,20.7,71,31.23,32.1116,0,5.5,276.8,11.6,0,0.00,0.00,0.00,27.887,28.5368
10min,FGNet,alpine,42.04,17FEB2021:00:20:00,28.9,28.9,28.7,20.5,70,31.23,32.1224,0,3.9,268.9,7.4,0,0.00,0.00,0.00,27.257,27.986
10min,FGNet,alpine,42.04,17FEB2021:00:30:00,28.7,28.7,28.5,20.6,71,31.23,32.126,0,1.2,170.8,2.8,0,0.00,0.00,0.00,27.257,27.8276
10min,FGNet,alpine,42.04,17FEB2021:00:40:00,28.6,28.6,28.4,20.6,71,31.23,32.1134,0,2.2,149.1,4.2,0,0.00,0.00,0.00,27.8672,28.0256
10min,FGNet,alpine,42.04,17FEB2021:00:50:00,28.5,28.6,28.4,20.8,73,31.22,32.099,0,2.9,180,4.6,0,0.00,0.00,0.00,27.5324,27.7898
10min,FGNet,alpine,42.04,17FEB2021:01:00:00,28.4,28.4,28.2,20.9,73,31.24,32.1044,0,3.1,201.7,5.1,0,0.00,0.00,0.00,27.05,27.7196
10min,FGNet,alpine,42.04,17FEB2021:01:10:00,28.6,28.9,28.7,20.5,71,31.22,32.1296,0,4.0,257.1,8.9,0,0.00,0.00,0.00,27.9662,28.5764
10min,FGNet,alpine,42.04,17FEB2021:01:20:00,28.7,28.7,28.6,21.1,73,31.22,32.1026,0,4.8,244.6,8.2,0,0.00,0.00,0.00,27.8474,28.2506
10min,FGNet,alpine,42.04,17FEB2021:01:30:00,28.2,28.2,28.1,21.9,77,31.23,32.1206,0,3.8,199.7,6.7,0,0.00,0.00,0.00,26.4488,27.1184
10min,FGNet,alpine,42.04,17FEB2021:01:40:00,27.8,27.9,27.8,22.2,79,31.21,32.117,0,3.6,190.1,5.7,0,0.00,0.00,0.00,26.7638,27.1688
10min,FGNet,alpine,42.04,17FEB2021:01:50:00,27.6,27.7,27.6,22.6,81,31.22,32.0936,0,3.9,181.6,5.8,0,0.00,0.00,0.00,26.7044,27.0608
10min,FGNet,alpine,42.04,17FEB2021:02:00:00,27.4,27.5,27.4,23.2,84,31.21,32.1134,0,3.7,175.1,6.0,0,0.00,0.00,0.00,26.843,27.1184
10min,FGNet,alpine,42.04,17FEB2021:02:10:00,27.3,27.4,27.4,23.5,85,31.22,32.135,0,2.5,152,4.4,0,0.00,0.00,0.00,26.627,26.9816
10min,FGNet,alpine,42.04,17FEB2021:02:20:00,27.2,27.3,27.2,23.7,86,31.2,32.1134,0,3.0,161.6,4.8,0,0.00,0.00,0.00,26.1716,26.5676
10min,FGNet,alpine,42.04,17FEB2021:02:30:00,27.0,27.1,27.0,23.7,87,31.2,32.0846,0,3.7,198.1,5.7,0,0.00,0.00,0.00,26.132,26.528
10min,FGNet,alpine,42.04,17FEB2021:02:40:00,26.9,27.0,27.0,23.7,88,31.2,32.1044,0,3.4,210.6,4.6,0,0.00,0.00,0.00,26.4686,26.8034
10min,FGNet,alpine,42.04,17FEB2021:02:50:00,26.9,27.1,27.0,23.7,88,31.19,32.0954,0,4.6,177.3,6.0,0,0.00,0.00,0.00,26.4884,26.7638
10min,FGNet,alpine,42.04,17FEB2021:03:00:00,26.9,27.1,27.0,23.5,87,31.2,32.1134,0,2.6,203,4.2,0,0.00,0.00,0.00,26.132,26.6468
10min,FGNet,alpine,42.04,17FEB2021:03:10:00,26.9,26.9,26.8,23.5,87,31.19,32.0936,0,3.0,199.4,6.9,0,0.00,0.00,0.00,26.1716,26.5676
10min,FGNet,alpine,42.04,17FEB2021:03:20:00,26.7,26.8,26.7,23.3,87,31.19,32.0954,0,3.7,212.2,6.0,0,0.00,0.00,0.00,25.9934,26.429
10min,FGNet,alpine,42.04,17FEB2021:03:30:00,26.6,26.8,26.7,23.2,87,31.19,32.1206,0,3.7,182.5,6.7,0,0.00,0.00,0.00,26.4686,27.356
10min,FGNet,alpine,42.04,17FEB2021:03:40:00,27.2,27.5,27.3,22.1,81,31.18,32.108,0,3.6,160.8,6.7,0,0.00,0.00,0.00,26.1338,26.627
10min,FGNet,alpine,42.04,17FEB2021:03:50:00,27.2,27.3,27.2,22.1,81,31.18,32.1026,0,3.5,172.4,4.9,0,0.00,0.00,0.00,26.1536,26.6558
10min,FGNet,alpine,42.04,17FEB2021:04:00:00,27.1,27.2,27.0,22.0,81,31.18,32.117,0,3.3,189.3,4.9,0,0.00,0.00,0.00,25.8962,26.6468
10min,FGNet,alpine,42.04,17FEB2021:04:10:00,27.1,27.2,27.1,21.8,80,31.18,32.099,0,3.6,231.1,5.5,0,0.00,0.00,0.00,25.925,26.6468
10min,FGNet,alpine,42.04,17FEB2021:04:20:00,26.9,26.9,26.7,21.8,81,31.19,32.1134,0,1.3,181.9,3.7,0,0.00,0.00,0.00,25.6586,26.3318
10min,FGNet,alpine,42.04,17FEB2021:04:30:00,26.7,26.8,26.6,22.3,83,31.18,32.099,0,3.5,76.05,5.5,0,0.00,0.00,0.00,25.6388,26.4686
10min,FGNet,alpine,42.04,17FEB2021:04:40:00,26.7,26.8,26.6,22.3,83,31.19,32.099,0,2.7,125.6,4.0,0,0.00,0.00,0.00,25.7576,26.5082
10min,FGNet,alpine,42.04,17FEB2021:04:50:00,26.7,26.8,26.7,22.2,83,31.18,32.117,0,3.6,170.9,5.1,0,0.00,0.00,0.00,26.132,26.6468
10min,FGNet,alpine,42.04,17FEB2021:05:00:00,26.7,26.9,26.8,22.4,83,31.18,32.099,0,4.0,167.5,6.2,0,0.00,0.00,0.00,26.1338,26.4884
10min,FGNet,alpine,42.04,17FEB2021:05:10:00,26.5,26.7,26.6,22.8,86,31.18,32.0846,0,3.9,170.4,6.2,0,0.00,0.00,0.00,26.0942,26.213
10min,FGNet,alpine,42.04,17FEB2021:05:20:00,26.1,26.2,26.2,23.4,90,31.18,32.1116,0,4.0,189.1,5.8,0,0.00,0.00,0.00,25.8962,25.8962
10min,FGNet,alpine,42.04,17FEB2021:05:30:00,25.8,26.0,26.0,23.7,92,31.18,32.0954,0,4.1,173.4,5.5,0,0.00,0.00,0.00,25.8566,25.8962
10min,FGNet,alpine,42.04,17FEB2021:05:40:00,25.7,26.0,26.0,23.8,92,31.18,32.1044,0,3.6,168.2,6.7,0,0.00,0.00,0.00,25.8368,25.8566
10min,FGNet,alpine,42.04,17FEB2021:05:50:00,25.8,26.0,26.0,23.9,93,31.17,32.0756,0,4.7,173.9,7.3,0,0.00,0.00,0.00,25.8962,25.8962
10min,FGNet,alpine,42.04,17FEB2021:06:00:00,25.7,25.9,25.9,24.0,93,31.18,32.0936,0,4.9,163.7,7.1,0,0.00,0.00,0.00,25.8872,25.8764
10min,FGNet,alpine,42.04,17FEB2021:06:10:00,25.6,25.8,25.8,24.0,94,31.17,32.099,0,4.9,148.2,6.4,0,0.00,0.00,0.00,25.7774,25.817
10min,FGNet,alpine,42.04,17FEB2021:06:20:00,25.5,25.7,25.7,24.0,94,31.16,32.126,0,3.1,126.7,4.9,0,0.00,0.00,0.00,25.6694,25.7774
10min,FGNet,alpine,42.04,17FEB2021:06:30:00,25.4,25.6,25.7,23.8,94,31.16,32.099,0,3.0,109.6,5.5,0,0.00,0.00,0.00,25.619,25.6784
10min,FGNet,alpine,42.04,17FEB2021:06:40:00,25.4,25.5,25.8,23.7,93,31.16,32.0864,0,4.8,123.8,7.6,0,0.00,0.00,0.00,25.7774,26.0348
10min,FGNet,alpine,42.04,17FEB2021:06:50:00,25.3,25.3,25.6,23.0,91,31.16,32.1026,0,3.8,181.4,9.1,0,0.00,0.00,0.00,25.6586,25.8854
10min,FGNet,alpine,42.04,17FEB2021:07:00:00,25.2,25.3,25.6,22.8,91,31.16,32.09,0,4.0,166,6.2,0,0.00,0.00,0.00,25.52,25.5596
10min,FGNet,alpine,42.04,17FEB2021:07:10:00,25.3,25.6,25.7,22.5,89,31.16,32.1224,0,5.2,219,10.3,0,0.00,0.00,0.00,25.6874,25.9538
10min,FGNet,alpine,42.04,17FEB2021:07:20:00,25.1,25.4,25.3,22.3,89,31.14,32.117,1,4.3,273.5,9.9,0,0.00,0.00,0.00,25.1528,25.0844
10min,FGNet,alpine,42.04,17FEB2021:07:30:00,24.8,25.1,25.1,22.5,91,31.15,32.081,3,2.3,116.9,4.9,0,0.00,0.00,0.00,25.2626,25.4804
10min,FGNet,alpine,42.04,17FEB2021:07:40:00,24.9,25.2,25.1,22.4,90,31.14,32.108,4,2.5,193.3,4.9,0,0.00,0.00,0.00,25.322,25.322
10min,FGNet,alpine,42.04,17FEB2021:07:50:00,24.8,25.2,25.1,22.6,91,31.14,32.0936,11,2.9,200.4,4.4,0,0.00,0.00,0.00,26.33,25.7378
10min,FGNet,alpine,42.04,17FEB2021:08:00:00,24.9,25.3,25.1,22.9,92,31.14,32.072,14,3.2,228.2,6.2,0,0.00,0.00,0.00,26.4776,25.8764
10min,FGNet,alpine,42.04,17FEB2021:08:10:00,24.8,25.2,25.2,22.6,91,31.14,32.0954,14,4.9,254.4,7.1,0,0.00,0.00,0.00,26.5676,25.6982
10min,FGNet,alpine,42.04,17FEB2021:08:20:00,24.7,25.1,25.0,22.6,92,31.13,32.108,31,4.6,272.8,7.3,0,0.00,0.00,0.00,28.4972,26.843
10min,FGNet,alpine,42.04,17FEB2021:08:30:00,24.9,25.3,25.4,22.3,90,31.14,32.081,38,4.2,277.2,6.2,0,0.00,0.00,0.00,29.6852,27.8474
10min,FGNet,alpine,42.04,17FEB2021:08:40:00,25.3,25.9,25.7,22.4,89,31.13,32.099,37,2.5,193.4,4.2,0,0.00,0.00,0.00,31.0082,29.048
10min,FGNet,alpine,42.04,17FEB2021:08:50:00,25.6,26.3,25.8,23.1,90,31.13,32.0954,36,2.7,154.9,3.5,0,0.00,0.00,0.00,31.0874,29.174
10min,FGNet,alpine,42.04,17FEB2021:09:00:00,25.7,26.2,25.9,22.7,88,31.12,32.1116,46,2.4,218.2,3.5,0,0.00,0.00,0.00,32.36,30.2144
10min,FGNet,alpine,42.04,17FEB2021:09:10:00,26.0,26.7,26.5,21.4,82,31.12,32.0774,67,4.0,280.8,5.8,0,0.00,0.00,0.00,32.6174,32.1368
10min,FGNet,alpine,42.04,17FEB2021:09:20:00,26.4,27.5,27.2,21.5,81,31.12,32.0936,96,3.6,265.5,5.5,80,0.00,0.00,0.00,33.4382,34.3004
10min,FGNet,alpine,42.04,17FEB2021:09:30:00,27.2,28.1,27.9,20.2,75,31.12,32.1044,113,6.6,295.3,11.0,100,0.00,0.00,0.00,33.368,32.1458
10min,FGNet,alpine,42.04,17FEB2021:09:40:00,27.5,28.2,27.9,19.2,71,31.11,32.108,115,9.4,305.3,15.5,100,0.00,0.00,0.00,32.9468,31.6364
10min,FGNet,alpine,42.04,17FEB2021:09:50:00,27.3,28.1,27.7,18.6,69,31.13,32.081,162,11.3,315.2,18.0,65,0.00,0.00,0.00,38.0876,33.0458
10min,FGNet,alpine,42.04,17FEB2021:10:00:00,27.6,28.5,28.0,18.7,69,31.12,32.1134,223,11.5,312.7,18.2,100,0.00,0.00,0.00,41.945,33.1232
10min,FGNet,alpine,42.04,17FEB2021:10:10:00,27.5,28.2,27.8,18.7,69,31.12,32.126,214,11.8,312.2,21.6,100,0.00,0.00,0.00,41.045,33.0404
10min,FGNet,alpine,42.04,17FEB2021:10:20:00,27.9,28.7,28.4,18.4,67,31.1,32.1134,224,10.2,305.3,18.4,100,0.00,0.00,0.00,40.802,32.7434
10min,FGNet,alpine,42.04,17FEB2021:10:30:00,28.0,28.6,28.3,18.4,67,31.11,32.1134,195,10.0,311.8,15.9,31.67,0.00,0.00,0.00,36.6998,31.0766
10min,FGNet,alpine,42.04,17FEB2021:10:40:00,27.3,27.9,27.6,19.3,72,31.1,32.0954,215,10.1,304.5,15.3,0,0.00,0.00,0.00,38.3126,31.361
10min,FGNet,alpine,42.04,17FEB2021:10:50:00,27.2,28.0,27.6,19.6,73,31.11,32.1134,296,10.7,295.2,15.5,53.33,0.00,0.00,0.00,42.152,32.9558
10min,FGNet,alpine,42.04,17FEB2021:11:00:00,27.1,27.9,27.6,20.0,74,31.1,32.1296,293,9.9,307.6,17.8,36.67,0.00,0.00,0.00,43.709,33.602
10min,FGNet,alpine,42.04,17FEB2021:11:10:00,27.4,28.4,28.1,19.9,73,31.09,32.1026,321,8.5,308.7,15.5,51.67,0.00,0.00,0.00,50.504,36.4442
10min,FGNet,alpine,42.04,17FEB2021:11:20:00,27.9,29.0,28.6,20.1,72,31.1,32.135,522,9.7,310.1,15.0,100,0.00,0.00,0.00,51.422,35.8358
10min,FGNet,alpine,42.04,17FEB2021:11:30:00,28.1,29.0,28.7,20.4,73,31.09,32.1386,514,10.2,308,16.9,100,0.00,0.00,0.00,53.168,37.112
10min,FGNet,alpine,42.04,17FEB2021:11:40:00,28.3,29.5,29.1,20.1,71,31.1,32.135,713,10.7,304.3,21.6,100,0.00,0.00,0.00,52.718,38.2226
10min,FGNet,alpine,42.04,17FEB2021:11:50:00,28.4,29.4,29.1,20.7,72,31.1,32.1116,786,10.8,304.3,17.5,100,0.00,0.00,0.00,61.574,40.2062
10min,FGNet,alpine,42.04,17FEB2021:12:00:00,28.4,29.2,28.9,20.8,73,31.1,32.117,647,9.7,284.4,16.0,100,0.00,0.00,0.00,41.405,32.7416
10min,FGNet,alpine,42.04,17FEB2021:12:10:00,27.5,28.6,28.2,21.1,76,31.1,32.1116,606,9.4,307,16.7,100,0.00,0.00,0.00,54.626,38.0948
10min,FGNet,alpine,42.04,17FEB2021:12:20:00,28.4,29.4,29.1,20.5,72,31.09,32.1224,597,8.3,302.4,16.4,100,0.00,0.00,0.00,52.52,36.9932
10min,FGNet,alpine,42.04,17FEB2021:12:30:00,28.0,28.9,28.7,21.7,77,31.1,32.1476,558,9.6,296.1,17.3,100,0.00,0.00,0.00,45.6512,34.8746
10min,FGNet,alpine,42.04,17FEB2021:12:40:00,27.7,28.7,28.4,21.5,77,31.1,32.126,541,9.2,301.9,14.2,100,0.00,0.00,0.00,43.709,33.9746
10min,FGNet,alpine,42.04,17FEB2021:12:50:00,28.1,29.0,28.7,20.7,73,31.1,32.1386,531,10.8,317.1,16.7,100,0.00,0.00,0.00,46.1156,35.0816
10min,FGNet,alpine,42.04,17FEB2021:13:00:00,28.3,29.2,28.9,20.8,73,31.11,32.1314,522,9.2,307.3,15.1,100,0.00,0.00,0.00,51.746,36.464
10min,FGNet,alpine,42.04,17FEB2021:13:10:00,29.1,30.2,29.8,20.1,69,31.1,32.1044,696,10.6,307.6,20.3,100,0.00,0.00,0.00,51.62,37.6232
10min,FGNet,alpine,42.04,17FEB2021:13:20:00,29.5,30.7,30.3,20.1,68,31.1,32.117,745,10.1,300.6,17.3,100,0.00,0.00,0.00,66.902,43.9502
10min,FGNet,alpine,42.04,17FEB2021:13:30:00,30.2,31.4,31.1,20.9,68,31.1,32.1296,758,8.5,298.6,16.2,45,0.00,0.00,0.00,59.306,40.3322
10min,FGNet,alpine,42.04,17FEB2021:13:40:00,30.3,31.4,31.0,20.8,67,31.11,32.1206,737,10.4,295.8,20.5,0,0.00,0.00,0.00,55.004,39.191
10min,FGNet,alpine,42.04,17FEB2021:13:50:00,29.9,30.8,30.5,20.2,67,31.11,32.1134,749,12.9,312.1,20.7,0,0.00,0.00,0.00,48.308,36.6998
10min,FGNet,alpine,42.04,17FEB2021:14:00:00,29.8,30.9,30.5,20.4,68,31.11,32.117,726,11.4,308.5,17.6,0,0.00,0.00,0.00,52.376,37.8464
10min,FGNet,alpine,42.04,17FEB2021:14:10:00,29.9,31.0,30.7,20.5,68,31.12,32.1224,726,10.0,308.9,18.7,0,0.00,0.00,0.00,55.778,39.0074
10min,FGNet,alpine,42.04,17FEB2021:14:20:00,30.2,31.0,30.7,19.9,65,31.12,32.126,581,12.0,312.7,16.7,0,0.00,0.00,0.00,39.7742,33.5876
10min,FGNet,alpine,42.04,17FEB2021:14:30:00,30.1,31.2,30.8,19.5,64,31.13,32.1134,691,11.4,311.7,20.7,0,0.00,0.00,0.00,57.02,39.6356
10min,FGNet,alpine,42.04,17FEB2021:14:40:00,30.6,31.5,31.2,19.8,64,31.11,32.1224,693,11.4,306.4,17.1,0,0.00,0.00,0.00,48.272,34.7216
10min,FGNet,alpine,42.04,17FEB2021:14:50:00,30.4,31.3,30.9,19.4,63,31.12,32.1224,661,12.1,305.6,18.0,0,0.00,0.00,0.00,44.1068,34.6604
10min,FGNet,alpine,42.04,17FEB2021:15:00:00,30.4,31.2,30.9,19.2,63,31.11,32.1044,635,12.1,300.8,19.3,0,0.00,0.00,0.00,43.8656,37.4144
10min,FGNet,alpine,42.04,17FEB2021:15:10:00,29.5,30.4,30.1,21.0,70,31.12,32.1386,578,11.6,302.4,16.9,0,0.00,0.00,0.00,44.9096,35.2076
10min,FGNet,alpine,42.04,17FEB2021:15:20:00,30.3,31.3,30.9,20.5,67,31.13,32.0936,531,11.1,297.6,17.3,0,0.00,0.00,0.00,46.3424,37.679
10min,FGNet,alpine,42.04,17FEB2021:15:30:00,30.1,30.8,30.5,20.1,66,31.13,32.1206,377,11.5,299.5,17.5,0,0.00,0.00,0.00,38.3702,34.0142
10min,FGNet,alpine,42.04,17FEB2021:15:40:00,30.1,30.8,30.4,19.9,65,31.12,32.0954,381,10.6,308.7,17.8,0,0.00,0.00,0.00,44.6918,36.6818
10min,FGNet,alpine,42.04,17FEB2021:15:50:00,30.8,31.8,31.4,18.5,60,31.13,32.1206,491,11.5,306.8,17.3,0,0.00,0.00,0.00,41.927,37.3334
10min,FGNet,alpine,42.04,17FEB2021:16:00:00,30.6,31.1,30.8,19.1,62,31.14,32.1116,404,11.5,294.7,18.0,0,0.00,0.00,0.00,37.5512,32.4356
10min,FGNet,alpine,42.04,17FEB2021:16:10:00,28.4,28.7,28.5,21.6,75,31.14,32.0936,202,12.2,298,20.5,0,0.00,0.00,0.00,34.61,31.5068
10min,FGNet,alpine,42.04,17FEB2021:16:20:00,28.9,30.1,29.7,20.4,70,31.13,32.108,384,9.7,299.8,15.3,0,0.00,0.00,0.00,41.9018,35.0222
10min,FGNet,alpine,42.04,17FEB2021:16:30:00,30.9,32.0,31.6,18.4,59,31.14,32.117,454,10.6,308.4,17.3,0,0.00,0.00,0.00,39.4808,36.0284
10min,FGNet,alpine,42.04,17FEB2021:16:40:00,30.7,31.6,31.2,19.3,62,31.15,32.0954,371,7.9,310.5,13.2,0,0.00,0.00,0.00,42.2096,35.618
10min,FGNet,alpine,42.04,17FEB2021:16:50:00,30.2,30.4,30.3,19.8,65,31.15,32.1044,148,9.0,318.3,13.9,0,0.00,0.00,0.00,33.5228,31.4564
10min,FGNet,alpine,42.04,17FEB2021:17:00:00,29.9,30.6,30.3,17.5,60,31.15,32.117,191,5.8,312.6,12.3,0,0.00,0.00,0.00,36.4622,32.9954
10min,FGNet,alpine,42.04,17FEB2021:17:10:00,30.4,31.1,30.9,16.1,55,31.15,32.0954,154,5.0,289.2,8.5,0,0.00,0.00,0.00,32.3294,31.028
10min,FGNet,alpine,42.04,17FEB2021:17:20:00,30.4,30.6,30.4,16.2,55,31.17,32.0954,64,4.4,276.1,10.7,0,0.00,0.00,0.00,32.3492,33.8954
10min,FGNet,alpine,42.04,17FEB2021:17:30:00,30.4,30.8,30.4,14.0,50,31.17,32.1044,101,6.7,296.9,12.6,0,0.00,0.00,0.00,31.8992,32.9954
10min,FGNet,alpine,42.04,17FEB2021:17:40:00,30.3,30.3,30.1,13.1,48,31.17,32.1026,66,6.9,300.9,11.4,0,0.00,0.00,0.00,29.1542,29.714
10min,FGNet,alpine,42.04,17FEB2021:17:50:00,29.9,29.8,29.5,13.0,49,31.18,32.0936,26,6.9,284.1,13.9,0,0.00,0.00,0.00,27.779,29.0768
10min,FGNet,alpine,42.04,17FEB2021:18:00:00,29.5,29.3,28.8,12.7,49,31.17,32.1026,9,4.9,276.5,8.5,0,0.00,0.00,0.00,26.0834,27.9158
10min,FGNet,alpine,42.04,17FEB2021:18:10:00,29.3,28.8,28.4,12.5,49,31.19,32.081,4,3.0,259.8,7.3,0,0.00,0.00,0.00,23.4248,26.3804
10min,FGNet,alpine,42.04,17FEB2021:18:20:00,28.5,28.1,27.7,13.0,52,31.19,32.0954,2,2.1,171.4,3.5,0,0.00,0.00,0.00,24.3986,27.5036
10min,FGNet,alpine,42.04,17FEB2021:18:30:00,28.3,28.0,27.7,12.3,51,31.18,32.108,0,2.3,209.7,5.1,0,0.00,0.00,0.00,23.189,26.1374
10min,FGNet,alpine,42.04,17FEB2021:18:40:00,28.9,28.9,28.4,11.2,47,31.19,32.072,0,5.5,281.6,11.0,0,0.00,0.00,0.00,25.6064,27.9338
10min,FGNet,alpine,42.04,17FEB2021:18:50:00,29.3,29.1,28.9,10.2,44,31.19,32.0936,0,7.0,222.1,13.3,0,0.00,0.00,0.00,25.3004,26.843
10min,FGNet,alpine,42.04,17FEB2021:19:00:00,28.3,27.9,27.3,11.1,48,31.18,32.072,0,4.6,199.6,9.4,0,0.00,0.00,0.00,25.538,27.5126
10min,FGNet,alpine,42.04,17FEB2021:19:10:00,28.8,28.8,28.4,12.3,50,31.18,32.0936,0,7.5,290.5,10.7,0,0.00,0.00,0.00,26.5478,27.8582
10min,FGNet,alpine,42.04,17FEB2021:19:20:00,28.8,28.8,28.5,11.5,48,31.19,32.1044,0,6.6,312.4,12.5,0,0.00,0.00,0.00,24.8252,26.9222
10min,FGNet,alpine,42.04,17FEB2021:19:30:00,28.7,28.7,28.3,13.7,53,31.18,32.09,0,6.3,299.9,9.8,0,0.00,0.00,0.00,25.718,27.7502
10min,FGNet,alpine,42.04,17FEB2021:19:40:00,28.5,28.4,28.1,14.6,56,31.19,32.072,0,6.2,310.3,10.1,0,0.00,0.00,0.00,26.2616,27.671
10min,FGNet,alpine,42.04,17FEB2021:19:50:00,28.2,27.9,27.6,14.3,56,31.18,32.0846,0,3.4,276.8,9.2,0,0.00,0.00,0.00,23.2952,25.115
10min,FGNet,alpine,42.04,17FEB2021:20:00:00,27.2,26.4,25.8,13.6,56,31.19,32.063,0,2.4,141.5,3.9,0,0.00,0.00,0.00,22.865,24.9062
10min,FGNet,alpine,42.04,17FEB2021:20:10:00,26.7,26.1,25.5,13.4,57,31.19,32.0684,0,3.3,87.7,4.0,0,0.00,0.00,0.00,22.1144,24.4292
10min,FGNet,alpine,42.04,17FEB2021:20:20:00,26.2,25.1,24.6,13.4,58,31.19,32.0756,0,1.8,170.7,3.3,0,0.00,0.00,0.00,19.4306,22.8344
10min,FGNet,alpine,42.04,17FEB2021:20:30:00,25.1,23.8,23.3,13.7,61,31.19,32.0864,0,0.9,150.4,2.8,0,0.00,0.00,0.00,18.1256,21.8336
10min,FGNet,alpine,42.04,17FEB2021:20:40:00,24.1,23.5,23.0,14.1,65,31.19,32.0756,0,1.7,121.6,3.3,0,0.00,0.00,0.00,18.986,21.4232
10min,FGNet,alpine,42.04,17FEB2021:20:50:00,23.6,22.8,22.2,13.6,65,31.2,32.0504,0,2.0,152.6,3.5,0,0.00,0.00,0.00,16.07,19.1318
10min,FGNet,alpine,42.04,17FEB2021:21:00:00,22.8,21.6,21.0,13.1,66,31.2,32.054,0,1.9,276.5,3.9,0,0.00,0.00,0.00,18.725,21.3188
10min,FGNet,alpine,42.04,17FEB2021:21:10:00,22.4,21.5,20.8,12.7,66,31.19,32.0594,0,2.0,219.7,4.2,0,0.00,0.00,0.00,17.564,19.9256
10min,FGNet,alpine,42.04,17FEB2021:21:20:00,22.0,21.7,21.3,12.5,66,31.19,32.0486,0,3.2,72.78,5.1,0,0.00,0.00,0.00,17.42,19.967
10min,FGNet,alpine,42.04,17FEB2021:21:30:00,22.1,21.3,20.9,12.1,65,31.21,32.0576,0,2.1,99.3,4.0,0,0.00,0.00,0.00,15.818,18.9752
10min,FGNet,alpine,42.04,17FEB2021:21:40:00,21.0,20.1,19.1,11.6,66,31.19,32.0684,0,3.3,300.1,5.1,0,0.00,0.00,0.00,17.006,19.9328
10min,FGNet,alpine,42.04,17FEB2021:21:50:00,21.0,20.3,19.9,11.5,66,31.19,32.0684,0,2.3,108.6,4.6,0,0.00,0.00,0.00,16.61,18.5414
10min,FGNet,alpine,42.04,17FEB2021:22:00:00,20.7,19.6,19.1,11.6,67,31.19,32.0414,0,2.1,192,3.1,0,0.00,0.00,0.00,14.594,17.6936
10min,FGNet,alpine,42.04,17FEB2021:22:10:00,19.6,18.7,18.1,11.0,69,31.2,32.045,0,2.5,158.8,4.8,0,0.00,0.00,0.00,12.974,16.304
10min,FGNet,alpine,42.04,17FEB2021:22:20:00,19.0,17.8,17.2,10.7,70,31.19,32.0576,0,2.0,183.1,4.4,0,0.00,0.00,0.00,16.25,17.8322
10min,FGNet,alpine,42.04,17FEB2021:22:30:00,18.5,17.0,16.5,10.6,71,31.19,32.054,0,1.6,220.9,4.0,0,0.00,0.00,0.00,13.514,16.736
10min,FGNet,alpine,42.04,17FEB2021:22:40:00,18.2,17.7,17.0,10.8,72,31.18,32.0576,0,1.8,134.6,4.9,0,0.00,0.00,0.00,15.566,17.348
10min,FGNet,alpine,42.04,17FEB2021:22:50:00,19.3,18.9,18.2,10.8,69,31.19,32.045,0,2.3,129.5,4.8,0,0.00,0.00,0.00,15.998,17.618
10min,FGNet,alpine,42.04,17FEB2021:23:00:00,19.4,18.3,17.8,10.8,69,31.19,32.045,0,1.6,246.4,2.6,0,0.00,0.00,0.00,16.322,17.8016
10min,FGNet,alpine,42.04,17FEB2021:23:10:00,19.6,19.0,18.5,11.4,70,31.2,32.072,0,2.4,132.7,3.5,0,0.00,0.00,0.00,15.998,17.276
10min,FGNet,alpine,42.04,17FEB2021:23:20:00,19.7,19.3,18.8,11.7,71,31.19,32.063,0,2.2,180.6,3.9,0,0.00,0.00,0.00,17.8016,19.274
10min,FGNet,alpine,42.04,17FEB2021:23:30:00,20.3,19.7,19.0,12.0,70,31.18,32.063,0,2.9,140.8,4.6,0,0.00,0.00,0.00,18.437,19.9634
10min,FGNet,alpine,42.04,17FEB2021:23:40:00,20.6,19.3,18.6,11.9,69,31.18,32.0486,0,1.8,156.4,4.2,0,0.00,0.00,0.00,15.98,17.582
10min,FGNet,alpine,42.04,17FEB2021:23:50:00,19.8,18.3,17.8,12.1,72,31.19,32.036,0,1.1,152,3.1,0,0.00,0.00,0.00,14.99,16.628
10min,FGNet,genola,42.05,17FEB2021:00:00:00,29.9,30.2,30.0,23.3,76,9.5,37.4918,0,5.9,291.7,12.6,100,0.00,0.00,0.01,28.4684,29.4548
10min,FGNet,genola,42.05,17FEB2021:00:10:00,29.9,30.3,30.1,23.0,75,9.55,37.49,0,7.9,313.6,11.0,100,0.00,0.00,0.00,28.823,29.3756
10min,FGNet,genola,42.05,17FEB2021:00:20:00,29.8,30.2,30.0,22.7,74,9.51,37.49,0,7.3,317.4,10.5,100,0.00,0.00,0.00,28.2686,29.0984
10min,FGNet,genola,42.05,17FEB2021:00:30:00,29.7,30.0,29.8,22.5,74,9.49,37.49,0,6.7,317.8,9.4,100,0.00,0.00,0.00,28.112,28.7438
10min,FGNet,genola,42.05,17FEB2021:00:40:00,29.4,29.8,29.6,22.4,75,9.47,37.49,0,7.1,313.7,11.2,100,0.00,0.00,0.00,27.7196,28.5494
10min,FGNet,genola,42.05,17FEB2021:00:50:00,29.4,29.7,29.6,22.6,75,9.44,37.49,0,6.1,324.9,11.7,100,0.00,0.00,0.00,28.2758,28.67
10min,FGNet,genola,42.05,17FEB2021:01:00:00,29.4,29.7,29.4,22.7,76,9.54,37.49,0,3.4,311.1,6.0,100,0.00,0.00,0.00,27.2462,28.2452
10min,FGNet,genola,42.05,17FEB2021:01:10:00,29.2,29.5,29.4,22.5,76,9.48,37.4864,0,4.4,337.7,8.7,100,0.00,0.00,0.00,28.148,28.4738
10min,FGNet,genola,42.05,17FEB2021:01:20:00,29.3,29.7,29.7,22.3,75,9.52,37.4828,0,5.7,255.5,8.7,100,0.00,0.00,0.00,28.9076,29.1848
10min,FGNet,genola,42.05,17FEB2021:01:30:00,29.6,30.0,30.0,22.2,73,9.5,37.4774,0,4.7,292.1,8.7,100,0.00,0.00,0.00,29.1254,29.381
10min,FGNet,genola,42.05,17FEB2021:01:40:00,29.5,29.8,29.7,22.3,74,9.52,37.4702,0,3.8,319.1,6.5,100,0.00,0.00,0.00,28.7888,29.066
10min,FGNet,genola,42.05,17FEB2021:01:50:00,29.4,29.6,29.7,22.0,74,9.45,37.4612,0,2.7,183.3,3.9,100,0.00,0.00,0.00,28.5926,28.976
10min,FGNet,genola,42.05,17FEB2021:02:00:00,29.3,29.4,29.4,22.2,74,9.5,37.4486,0,1.4,168,4.8,100,0.00,0.00,0.00,28.958,29.066
10min,FGNet,genola,42.05,17FEB2021:02:10:00,29.3,29.6,29.5,22.1,74,9.5,37.4414,0,2.3,280.8,4.4,100,0.00,0.00,0.00,28.7492,29.2244
10min,FGNet,genola,42.05,17FEB2021:02:20:00,29.3,29.6,29.6,22.3,75,9.48,37.4378,0,3.4,267.2,7.1,100,0.00,0.00,0.00,28.7888,29.2244
10min,FGNet,genola,42.05,17FEB2021:02:30:00,29.3,29.6,29.5,22.7,76,9.44,37.4342,0,3.0,308.3,5.1,100,0.00,0.00,0.00,28.5134,28.868
10min,FGNet,genola,42.05,17FEB2021:02:40:00,29.1,29.3,29.2,23.1,78,9.47,37.427,0,1.0,301.9,2.6,100,0.00,0.00,0.00,28.3154,28.5134
10min,FGNet,genola,42.05,17FEB2021:02:50:00,28.9,29.1,29.0,22.9,78,9.53,37.418,0,3.0,321.8,5.3,100,0.00,0.00,0.00,27.9986,28.355
10min,FGNet,genola,42.05,17FEB2021:03:00:00,28.8,29.2,29.1,22.7,78,9.49,37.409,0,4.7,298.3,6.0,100,0.00,0.00,0.00,28.553,28.7492
10min,FGNet,genola,42.05,17FEB2021:03:10:00,29.0,29.4,29.3,22.2,75,9.52,37.4018,0,4.3,332.1,5.7,100,0.00,0.00,0.00,28.7492,28.868
10min,FGNet,genola,42.05,17FEB2021:03:20:00,29.0,29.4,29.4,22.0,75,9.45,37.3982,0,5.2,331.5,7.4,100,0.00,0.00,0.00,28.8284,29.0264
10min,FGNet,genola,42.05,17FEB2021:03:30:00,29.1,29.5,29.4,21.8,74,9.52,37.3946,0,5.6,335.3,7.8,100,0.00,0.00,0.00,28.661,28.9472
10min,FGNet,genola,42.05,17FEB2021:03:40:00,29.0,29.4,29.4,22.0,74,9.43,37.3784,0,5.2,314,11.2,100,0.00,0.00,0.00,29.1146,29.2244
10min,FGNet,genola,42.05,17FEB2021:03:50:00,29.1,29.5,29.4,21.6,73,9.54,37.3676,0,5.4,309.1,9.8,100,0.00,0.00,0.00,28.553,28.8086
10min,FGNet,genola,42.05,17FEB2021:04:00:00,28.9,29.3,29.2,22.1,75,9.5,37.3514,0,6.0,315.8,9.9,100,0.00,0.00,0.00,28.8284,28.9868
10min,FGNet,genola,42.05,17FEB2021:04:10:00,28.9,29.3,29.2,22.2,76,9.45,37.346,0,5.6,298.7,8.2,100,0.00,0.00,0.00,28.553,28.7888
10min,FGNet,genola,42.05,17FEB2021:04:20:00,28.8,29.2,29.1,22.2,76,9.45,37.346,0,5.6,342.4,7.4,100,0.00,0.00,0.00,28.5926,28.7492
10min,FGNet,genola,42.05,17FEB2021:04:30:00,28.7,29.1,29.1,21.7,75,9.5,37.3442,0,5.9,331.1,9.9,100,0.00,0.00,0.00,28.4342,28.67
10min,FGNet,genola,42.05,17FEB2021:04:40:00,28.6,28.9,28.9,21.8,76,9.48,37.3298,0,4.0,318.3,7.4,100,0.00,0.00,0.00,28.2362,28.5332
10min,FGNet,genola,42.05,17FEB2021:04:50:00,28.6,29.0,28.9,21.7,75,9.45,37.3154,0,4.2,314.8,6.7,100,0.00,0.00,0.00,28.6412,28.7492
10min,FGNet,genola,42.05,17FEB2021:05:00:00,28.6,29.0,28.9,21.8,76,9.47,37.31,0,5.5,269.5,11.0,100,0.00,0.00,0.00,28.355,28.4738
10min,FGNet,genola,42.05,17FEB2021:05:10:00,28.5,28.9,28.8,22.0,76,9.49,37.2992,0,6.4,319.6,11.4,100,0.00,0.00,0.00,27.9986,28.1966
10min,FGNet,genola,42.05,17FEB2021:05:20:00,28.4,28.7,28.7,22.2,77,9.43,37.2758,0,6.5,336.2,8.7,100,0.00,0.00,0.00,27.5432,28.0382
10min,FGNet,genola,42.05,17FEB2021:05:30:00,28.2,28.6,28.5,22.1,77,9.44,37.2614,0,6.0,298,13.5,100,0.00,0.00,0.00,27.7214,28.0382
10min,FGNet,genola,42.05,17FEB2021:05:40:00,28.2,28.6,28.5,22.1,77,9.42,37.256,0,7.0,120.6,9.2,100,0.00,0.00,0.00,27.4838,27.8798
10min,FGNet,genola,42.05,17FEB2021:05:50:00,28.1,28.5,28.3,22.3,78,9.46,37.2524,0,6.1,320.8,8.7,100,0.00,0.00,0.00,26.9798,27.4064
10min,FGNet,genola,42.05,17FEB2021:06:00:00,27.9,28.3,28.2,22.4,79,9.49,37.238,0,5.2,328.5,10.1,100,0.00,0.00,0.00,26.4938,27.167